Location: Gleizolles
(44.4833°N, 6.7667°E)
Time: 05:16:45
(UTC+00:00)

Transit 4A - Pass Details

Date: 02 July 2024
Orbit: 870 x 973 km, 66.8° (Epoch: 14 July)

Event Time Altitude Azimuth Distance (km) Brightness Sun altitude
Rises 21:54:54 0° 273° (W) 3,456 11.3 -18.6°
Reaches altitude 10° 21:58:39 10° 298° (WNW) 2,522 10.9 -18.9°
Maximum altitude 22:01:45 15° 330° (NNW) 2,219 11.0 -19.1°
Drops below altitude 10° 22:04:53 10° 3° (N) 2,538 11.1 -19.3°
Sets 22:08:42 0° 27° (NNE) 3,494 11.5 -19.6°
